Flag for Canada Weather past 2 weeks in Bathurst, New Brunswick, Canada

Now
54 °F

Passing clouds.


Feels Like: 50 °F
Forecast: 44 / 60 °F
Wind: 12 mph from West

Location: Bathurst Airport

Current Time: Sep 17, 2014 at 11:16:22 AM

Latest Report: Sep 17, 2014 at 10:00 AM


Visibility: 15 mi

Pressure: 29.87 "Hg

Humidity: 77%

Dew point: 46 °F

Location of BathurstLocation

Historic Weather in Bathurst — Graph

°F

Bathurst temperature yesterday

Maximum temperature yesterday: 59 °F (at 3:00 PM)
Minimum temperature yesterday: 36 °F (at 5:00 AM)
Average temperature yesterday: 47 °F

Past Weeks' High & Low Weather Summary

 TemperatureHumidityPressure
High81 °F (Sep 6, 11:00 AM)100% (Sep 2, 10:00 PM)30.45 "Hg (Sep 2, 10:00 PM)
Low36 °F (Sep 9, 6:00 AM)30% (Sep 8, 3:00 PM)29.55 "Hg (Sep 3, 7:00 AM)
Average57 °F76%29.99 "Hg
* Reported Sep 2 10:00 AM — Sep 17 10:00 AM, Bathurst, Weather by CustomWeather, © 2014

Note: Actual official high and low records may vary slightly from our data, if they occured in-between our weather recording intervals... More about our weather records

Advertising

Bathurst weather history for previous 24 hours

 ConditionsComfort  
Time TempWeatherWind HumidityBarometerVisibility
10:00 AM
Sep 17
54 °FPassing clouds.12 mph77%29.87 "Hg15 mi
9:00 AM52 °FPassing clouds.8 mph82%29.86 "Hg15 mi
8:00 AM46 °FClear.7 mph93%29.85 "Hg15 mi
7:00 AM39 °FFog.6 mph100%29.83 "Hg12 mi
6:00 AM39 °FClear.3 mph100%29.83 "Hg12 mi
5:00 AM41 °FClear.3 mph93%29.82 "Hg10 mi
4:00 AM41 °FPassing clouds.2 mph93%29.82 "Hg10 mi
3:00 AM45 °FPassing clouds.5 mph93%29.83 "Hg12 mi
2:00 AM45 °FPassing clouds.6 mph100%29.84 "Hg12 mi
1:00 AM48 °FPassing clouds.5 mph94%29.84 "Hg15 mi
12:00 AM50 °FPassing clouds.3 mph94%29.85 "Hg15 mi
11:00 PM
Sep 16
50 °FPassing clouds.6 mph94%29.85 "Hg15 mi
10:00 PM52 °FSprinkles. Overcast.7 mph88%29.85 "Hg15 mi
9:52 PM52 °FSprinkles. Overcast.8 mph88%29.86 "Hg12 mi
9:00 PM52 °FPassing clouds.6 mph88%29.86 "Hg15 mi
8:00 PM54 °FSprinkles. Partly sunny.No wind82%29.86 "Hg15 mi
7:00 PM55 °FPartly sunny.2 mph77%29.85 "Hg15 mi
6:00 PM57 °FBroken clouds.7 mph72%29.85 "Hg15 mi
5:00 PM57 °FPartly sunny.13 mph72%29.85 "Hg15 mi
4:00 PM59 °FPartly sunny.14 mph68%29.86 "Hg15 mi
3:00 PM59 °FPartly sunny.10 mph68%29.87 "Hg15 mi
2:00 PM54 °FMostly cloudy.No wind88%29.88 "Hg15 mi
1:00 PM50 °FMostly cloudy.3 mph88%29.91 "Hg15 mi
12:45 PM50 °FMostly cloudy.3 mph88%29.91 "Hg15 mi
12:00 PM48 °FMostly cloudy.3 mph94%29.93 "Hg15 mi
11:49 AM48 °FMostly cloudy.3 mph87%29.93 "Hg15 mi
11:00 AM46 °FLight rain. Mostly cloudy.No wind93%29.94 "Hg15 mi
Weather by CustomWeather, © 2014

See weather overviewHow to use our weather pages